Showing default

HAISHAO 1, 62190

Orbit data source: Space-Track

HAISHAO 1, 62190 is a Chinese payload satellite in LEO that was launched on Wed, 04 Dec 2024 UTC via a KUAIZHOU-1A launch vehicle from the Xichang Space Center, China (XSC). Payload-class satellites include a variety of spacecraft equipped with specific instruments for various scientific and technological missions. These include communications satellites like Starlink; space stations such as the ISS; scientific satellites like the Hubble; Earth observation satellites from companies like Planet Labs, Umbra, and HawkEye 360; GPS; miniature CubeSats for education and research; and military/defense satellites.

Loading next visibility...
Identifier
62190, 2024-228A
Orbit
LEO
Last TLE update
8 hours ago
Origin
Manufacturer
ZHWK/IMICAS
Mission
Operational Commercial Radar Imaging
Bus & Motor
ZK1, Unknown motor
Mass
400 kg wet, 400 kg dry
Launch date (UTC)
2024-12-04 (7 months ago)
Launch vehicle
KUAIZHOU-1A
Launch site
Xichang Space Center, China (XSC)
Object type
Payload
Rocket body
Debris
Shape & HBR
Box + 3 Pan, 6 m
Radar Cross Section
3.533 m², Large (>1 m²)

Expand to show TLE details & history

TLE from 8 hours ago
0 HAISHAO 1
1 62190U 24228A   25187.60178927  .00028858  00000-0  28284-3 0  9997
2 62190  42.9907 271.8527 0004470   0.9290 359.1583 15.65509755 33422
Epoch: 2025-07-06T14:26Z
TLE epoch observation values (Epoch: 2025-07-06T14:26:34.592Z)
Latitude
-0.00005°
Longitude
130.38538°
Altitude
368.527 km
Speed
7.692 km/s
True Right ascension
18h 07m 24s
True Declination
0° 00' 00"
Sunlit
Object was in full shadow at epoch
Visualization orbit readout
Latitude
-8.48044°
Longitude
-42.57564°
Altitude
375.947 km
Speed
7.684 km/s
Apparent Right ascension
03h 39m 47s
Apparent Declination
-38° 21' 50"
Sunlit
Object is in daylight
Visualization observer readout
Local Sidereal Time
10:55:12
Azimuth
247.098° WSW
Elevation
-36.339°
Doppler factor
1
Orbital elements
Apogee altitude
376.77 km
Perigee altitude
370.734 km
Semi-major axis
6,751.889 km
Eccentricity
0.00045
Inclination
42.9907°
RAAN
271.8527°
Arg. of periapsis
0.929°
True anomaly
Unknown
Mean anomaly
359.1583°
Eccentric anomaly
Unknown
Mean motion
3.91206 °/min
Orbital period
92.02 mins
BSTAR
0.00028284
Loading maneuver chart data...
Loading SW <> Apogee altitude chart data...
Loading historical data...
Loading historical data...
Loading historical data...
Loading historical data...
Loading historical data...
Loading historical data...
Loading historical data...
Other satellites on launch #228 in the year 2024 (2024-12-04 UTC)

HAISHAO 1 Visibility forecast

Observer location: undefined°, undefined°

Span
Click to sort rows by Start time (UTC) header in descending order
Start Az.
Max El. time (UTC)
Max El. Az.
Max El.
End time (UTC)
End Az.
5 mins2025-07-07 09:01:59.494Z216.712° SW2025-07-07 09:03:59.494Z167.939° S29.747°2025-07-07 09:06:59.494Z84.543° E
4 mins2025-07-07 10:38:59.494Z275.534° WNW2025-07-07 10:40:59.494Z19.547° NNE38.768°2025-07-07 10:42:59.494Z66.215° ENE
4 mins2025-07-07 12:15:59.494Z304.686° NW2025-07-07 12:16:59.494Z340.111° N34.965°2025-07-07 12:19:59.494Z80.757° E
4 mins2025-07-07 13:51:59.494Z278.915° WNW2025-07-07 13:53:59.494Z188.581° SSW40.931°2025-07-07 13:55:59.494Z125.595° SE
|